Volver al catálogo

DELTA 1 DEB

ActivoSSO
NORAD 7133·DEBRIS·🇺🇸 United States

Lanzado Nov 6, 1973 desde Vandenberg Space Force Base

Loading…

Próximos Pases (próximas 24 horas)

TLE

ActualizadoSource: Space-Track

Época: Sep 14, 2026, 00:56 UTC

1 07133U 73086CX  26257.03943226  .00000126  00000-0  12354-2 0  9995
2 07133 101.6625 287.9612 0038528 155.3019 233.5231 12.41616259391371

Sigue DELTA 1 DEB en tiempo real con AllMySat

Download on the App Store